User: anonymous   Login
Location: Unspecified
(0.0000°N, 0.0000°E)
Time: 12:27:24
(UTC+00:00)
Language:

USA 8 - Orbit

View from above orbital plane
View from above orbital plane
View from above satellite
View from above satellite

Ground track
Ground track

The orbit data is extracted from the following two-line orbital elements,

1 15543U 85010B   19083.73627778 0.00000000  00000-0  00000-0 0    03
2 15543  16.9723 341.2295 0133768 339.7736  19.7133  0.99805218    06
Epoch (UTC): 24 March 2019 17:40:14
Eccentricity: 0.0133768
inclination: 16.9723°
perigee height: 35352 km
apogee height: 36483 km
right ascension of ascending node: 341.2295°
argument of perigee: 339.7736°
revolutions per day: 0.99805218
mean anomaly at epoch: 19.7133°
orbit number at epoch: 0

The dashed part of the orbit path shows where the satellite is in the earth's shadow,  

DLR